Portada
METAR-TAF:

METAR-TAF

Aeroports :

El Palmar

Santa Ana, El Salvador

latitud: 13-59N, longitud: 089-34W, altitud: 725 m

Observació

L'informe es va fer fa 3 hores i 53 minuts, a les 22:50 UTC
Vent 2 kt del Sud-Est
Temperatura 32°C
Humitat 43%
Pressió 1015 hPa
Visibilitat 10 km o més
sense núvols per sota de 1500 mi sense presència de cumulonimbus.

METAR: MSSA 202250Z 14002KT CAVOK 32/18 Q1015 A2998

Hora: 20:43 (02:43 UTC)


TAF: manca

Observacions i pronòstics meteorològics de més de 4000 aeroports (METAR i TAF).

Les estacions disponibles són els punts grocs i vermells al mapa.

Posi el ratolí al punt desitjat per veure el nom de l'estació.

Feu clic per veure les observacions i els pronòstics meteorològics.

Per canviar el mapa: feu clic els botons verds amb una creu de color negre per apropar; al botó verd amb un guió per allunyar la imatge; o en les fletxes verdes per a mapes adjacents.


METAR-TAF: